GEFSSE_500_meanwind_000.txt.gz
Wind_Speed
6 7 9 10 12 12 13 13 12 12 11 10 10 11 11 9 8 8 7 5 5 9 26 24 12 12 13 14 13 11 9 7 7 7 7 8 8 7 6 7 9 12 13
6 6 8 10 12 12 12 13 12 10 10 10 10 10 10 7 5 4 3 4 4 6 6 13 11 9 9 10 11 10 8 5 7 8 7 6 7 8 8 8 9 10 13
7 6 8 10 11 12 13 13 12 11 10 11 10 11 8 5 4 3 3 1 3 5 7 9 11 9 8 9 10 10 10 8 6 6 6 6 6 7 7 8 9 10 14
8 8 9 10 11 12 13 13 13 11 10 10 10 10 6 4 3 3 4 5 6 7 8 10 11 12 11 11 11 11 10 9 7 6 6 6 6 8 9 8 7 8 15
10 10 11 12 12 13 14 14 13 11 11 10 9 7 6 3 4 4 5 7 8 9 9 9 11 13 13 12 12 12 11 10 9 10 10 10 10 10 11 11 8 8 12
10 10 11 13 14 14 15 15 13 12 11 10 8 5 4 3 4 3 3 7 11 11 10 11 13 13 13 12 12 13 13 11 11 13 15 16 15 13 12 12 9 7 9
10 11 13 14 14 14 15 16 13 12 11 9 8 6 6 7 7 6 5 9 15 16 14 14 15 15 15 15 14 14 13 12 11 10 11 14 15 13 11 10 11 8 9
10 10 13 15 17 17 17 17 14 13 11 11 10 9 9 8 7 7 7 8 13 17 17 17 18 16 17 17 17 17 17 13 10 9 8 8 11 12 12 13 10 9 8
10 11 14 17 18 19 19 19 16 14 13 13 13 11 11 10 9 8 7 8 11 13 14 16 17 16 15 15 17 18 16 14 12 11 11 11 13 14 14 12 11 10 10
12 13 16 19 18 18 19 20 18 17 17 15 14 13 12 11 10 8 7 8 9 12 14 15 18 18 17 16 16 18 17 17 14 13 12 13 16 16 16 14 12 12 12
14 16 20 21 19 17 19 20 20 18 17 15 15 15 14 11 8 7 7 9 9 11 15 16 17 18 17 18 19 19 18 17 16 14 13 13 15 18 17 16 15 14 13
17 20 23 22 18 16 17 20 20 19 17 16 15 15 15 10 7 6 7 10 10 11 12 14 16 20 19 18 19 19 19 18 16 15 14 13 13 15 17 17 17 16 15
20 22 22 19 15 13 13 21 21 19 20 17 16 15 13 10 7 5 7 10 9 9 8 8 10 17 20 19 18 17 17 16 16 14 13 13 13 15 18 17 17 16 15
22 22 19 19 17 17 16 25 24 22 20 18 16 14 10 9 8 7 6 9 8 7 6 8 8 11 13 19 19 15 16 15 15 15 14 14 15 16 19 20 18 17 16
25 25 19 17 14 17 17 20 22 24 20 17 14 13 9 8 11 9 9 9 9 8 6 8 8 10 10 14 15 15 16 16 16 16 15 15 15 15 17 20 19 17 17
27 25 21 19 22 17 12 17 24 25 20 18 18 14 10 9 12 11 9 11 11 9 9 10 9 7 8 10 11 13 12 13 15 15 16 16 15 14 14 15 16 17 18
22 24 25 19 22 19 14 23 23 22 18 17 19 16 11 10 12 12 11 12 13 12 9 11 10 7 7 10 11 12 11 10 12 14 15 16 16 15 15 14 14 15 15
22 21 21 20 25 26 24 22 18 19 16 17 16 17 12 11 13 13 13 14 15 13 11 13 13 9 8 7 6 8 10 11 12 12 13 14 16 15 15 15 14 13 13
28 23 20 21 26 26 20 19 18 15 15 14 13 15 13 12 15 16 15 15 14 12 14 15 12 11 12 8 2 4 6 9 11 12 12 13 15 16 16 15 16 15 14
31 25 24 22 20 18 16 20 22 19 20 12 13 15 14 15 19 19 17 15 16 16 16 16 14 14 15 10 4 4 5 5 7 9 12 12 14 16 16 17 17 17 17
30 25 22 21 17 16 18 20 19 21 19 15 20 21 18 17 21 24 20 16 17 16 19 19 16 17 14 10 9 8 6 4 4 5 7 10 13 15 15 15 16 17 16
29 27 23 20 19 19 21 22 24 23 21 21 23 23 19 19 22 28 25 21 20 20 18 21 20 18 15 11 11 12 9 7 6 7 7 8 11 13 13 13 14 15 16
26 24 22 21 23 24 25 25 25 22 23 24 23 25 23 21 24 26 24 24 24 21 22 19 20 17 17 15 14 15 16 13 11 11 11 10 11 12 10 11 13 15 16
23 22 22 24 26 26 25 23 20 19 22 23 23 21 24 24 26 23 25 25 25 22 23 24 23 21 20 18 17 17 16 14 14 14 14 12 13 13 11 12 13 13 15
23 24 26 28 28 26 23 21 19 20 21 21 20 20 22 23 22 24 26 26 26 27 27 29 27 23 20 18 18 17 16 15 15 15 16 15 14 14 13 12 13 13 13
26 26 27 26 25 24 24 22 21 22 22 20 22 25 24 23 22 26 30 29 30 28 29 28 25 24 20 20 21 18 18 16 16 17 19 18 16 16 16 14 15 15 14

GEFSSE_500_meanwind_006.txt.gz
Wind_Speed
11 11 11 12 13 14 13 12 13 12 10 10 10 9 9 8 7 7 6 6 6 9 14 17 17 18 17 16 15 13 11 8 7 7 6 5 4 4 3 1 8 9 11
11 12 11 12 13 13 13 12 13 12 10 10 10 10 10 8 8 7 6 4 5 3 6 13 16 16 15 17 17 16 15 11 8 8 6 5 5 6 5 3 4 7 10
8 10 11 12 12 13 13 13 13 12 9 9 10 10 9 8 8 9 7 5 3 2 3 11 15 14 11 12 12 12 14 11 8 8 7 5 5 5 5 5 6 8 9
6 8 10 10 12 13 14 14 14 12 9 9 9 9 9 8 8 9 9 6 3 1 2 4 7 8 7 6 7 6 7 8 7 7 6 6 5 5 4 4 6 8 9
3 5 8 10 12 13 14 15 15 13 10 9 10 9 8 8 8 9 10 7 4 3 3 3 3 5 6 6 6 7 7 7 7 6 5 5 6 6 5 5 6 7 7
3 3 6 9 12 13 14 15 16 14 11 10 10 9 8 8 9 10 9 8 7 6 5 5 5 6 8 8 8 9 9 8 7 6 7 8 10 11 9 7 7 8 8
5 5 8 10 13 14 14 15 15 15 11 11 11 11 9 9 10 10 10 9 8 9 9 8 8 9 9 9 9 9 10 10 8 8 9 11 12 14 13 9 7 8 9
6 8 10 13 16 15 13 14 16 17 13 11 12 12 11 10 11 11 11 11 11 12 14 13 12 11 10 10 10 11 11 11 10 9 9 10 11 12 12 9 8 9 9
8 11 12 14 16 15 12 11 14 16 14 12 13 13 13 11 11 12 13 13 13 13 15 17 16 15 13 13 12 12 13 12 11 10 10 10 9 9 9 10 10 9 9
8 11 12 14 16 14 12 10 11 15 15 13 13 14 13 12 11 12 12 13 13 13 14 17 17 16 15 14 14 14 14 14 13 12 11 10 10 9 9 11 11 9 9
10 13 13 14 18 16 13 10 10 14 16 14 13 14 14 13 11 10 10 11 11 12 13 14 15 16 15 14 15 15 15 14 14 13 13 13 12 11 11 12 10 9 10
12 15 15 16 19 19 15 12 12 14 17 15 14 14 15 14 11 10 8 9 11 11 12 14 15 16 16 17 17 17 17 17 16 15 15 14 13 14 15 14 12 11 12
15 17 18 18 19 20 15 13 14 15 19 18 14 13 14 15 13 10 7 9 10 12 12 13 14 16 18 19 19 17 17 17 17 16 15 14 14 14 16 17 15 14 14
16 18 20 19 20 22 19 16 15 14 18 19 14 11 11 13 13 11 8 8 10 12 13 13 12 13 14 16 17 16 16 16 16 15 14 13 14 15 15 17 17 16 16
17 20 21 21 22 23 21 19 18 16 18 18 14 10 10 12 13 12 10 8 9 11 12 12 11 10 10 11 13 14 16 16 14 13 13 12 13 14 14 15 16 16 17
17 20 21 21 22 24 22 21 20 19 20 18 15 12 11 12 13 13 12 10 9 11 12 12 10 7 6 7 9 12 15 16 15 14 13 12 12 12 12 13 16 17 19
17 20 22 23 24 25 24 22 22 21 20 17 15 14 13 13 14 14 14 12 11 12 12 11 11 8 6 6 6 8 12 14 14 14 14 14 14 13 13 13 16 19 20
17 20 22 23 25 26 24 21 21 18 16 16 13 13 11 12 15 15 15 14 12 12 13 12 12 11 7 4 4 5 8 10 12 12 13 14 15 16 15 14 15 16 16
18 19 21 22 24 24 23 20 18 14 15 15 13 11 9 10 14 16 16 15 13 14 14 14 13 13 9 6 4 3 4 7 9 11 12 14 16 16 15 14 14 13 13
18 19 20 21 23 24 22 20 17 15 17 17 15 11 9 11 14 16 17 16 15 16 17 16 15 14 12 9 5 1 2 4 7 9 11 13 15 16 15 15 15 15 14
20 20 20 22 23 22 20 19 17 17 19 19 18 15 13 14 15 18 19 18 18 19 19 17 15 14 13 11 8 5 3 4 5 6 8 11 14 15 16 17 17 17 17
22 21 21 22 22 20 19 18 19 20 20 19 20 20 20 20 20 21 23 22 22 21 20 20 18 17 16 14 11 9 8 7 6 5 6 7 11 14 15 16 17 18 19
24 22 22 22 21 20 19 19 20 21 21 20 21 23 24 25 25 24 25 25 24 24 22 22 22 21 20 17 13 12 12 11 9 8 8 8 8 9 11 13 15 16 18
24 23 22 22 22 22 21 22 23 24 22 21 21 22 23 24 26 27 27 28 27 28 27 25 24 23 23 20 17 15 15 14 13 13 12 12 11 11 11 12 13 14 16
24 23 22 21 21 21 22 23 24 23 21 22 22 23 24 24 25 26 28 31 30 32 32 30 28 25 25 23 19 18 18 18 17 16 16 16 16 15 14 13 13 14 15
24 23 23 22 21 21 22 21 20 19 19 21 23 24 24 24 22 24 27 31 33 33 33 32 30 28 27 24 23 22 21 21 19 17 16 17 18 17 16 15 14 15 15

GEFSSE_500_meanwind_012.txt.gz
Wind_Speed
9 10 10 10 9 9 8 6 7 7 7 6 7 7 7 7 6 6 6 7 8 10 10 14 21 23 21 18 16 14 13 12 10 9 8 8 7 5 2 2 7 11 11
6 8 9 9 9 10 9 7 6 7 7 6 6 7 7 7 6 5 6 7 8 8 6 9 17 24 23 20 18 16 16 14 12 11 10 9 8 6 3 1 3 8 11
4 6 8 9 10 11 10 8 6 7 6 7 7 7 7 7 6 5 6 7 6 6 5 3 13 20 22 20 18 18 19 17 14 12 11 10 9 8 6 4 3 5 8
2 4 7 9 10 11 10 8 8 7 6 7 8 8 7 6 5 5 6 6 3 4 4 2 8 15 18 18 17 17 19 21 16 13 12 10 9 8 7 6 5 5 7
3 3 6 9 11 11 10 9 8 7 6 7 9 9 8 6 5 5 5 4 2 1 1 2 5 9 11 12 12 11 14 20 19 15 12 10 9 7 7 6 6 7 8
2 4 6 9 11 11 10 9 8 7 7 8 9 11 10 7 6 6 5 4 3 3 3 2 4 5 7 8 8 8 9 12 16 14 11 9 8 7 7 7 7 8 9
2 3 5 9 11 12 11 9 8 8 8 9 10 11 10 9 7 6 6 5 5 6 6 5 5 6 7 7 8 9 10 11 11 10 7 7 7 9 10 10 9 10 10
1 3 6 8 10 11 11 10 9 8 9 10 10 11 11 10 9 8 8 8 8 8 9 9 8 7 7 8 8 10 12 12 11 9 8 7 6 8 10 11 12 11 10
2 3 5 7 9 11 10 10 9 9 10 11 11 12 11 10 9 9 10 10 10 10 10 11 12 10 9 10 10 12 13 13 13 11 10 8 7 7 8 11 13 12 11
2 2 5 7 8 10 11 10 9 10 11 12 12 13 12 11 10 10 11 11 11 11 11 12 13 14 13 12 13 14 15 15 15 13 11 10 8 8 8 10 12 12 11
1 2 4 6 8 10 12 12 11 11 13 14 14 14 13 12 11 11 12 12 11 10 10 11 12 14 15 15 16 16 17 17 17 15 13 12 11 10 9 9 12 13 13
1 3 4 6 8 11 14 15 14 13 14 15 15 15 14 12 12 12 13 13 11 9 9 9 11 13 14 16 17 18 19 19 18 16 14 13 13 12 11 11 13 15 14
3 4 6 7 9 11 14 16 15 14 15 16 15 16 15 13 12 12 13 13 11 9 10 11 11 12 13 15 17 19 20 20 19 18 16 15 14 14 14 15 16 16 15
6 7 8 9 10 11 13 15 15 15 15 15 15 16 14 12 11 12 13 13 11 10 10 11 11 12 13 15 18 20 22 22 21 19 18 17 17 16 16 17 19 17 16
10 11 11 12 13 13 14 16 16 15 14 15 16 14 13 11 11 12 13 13 12 11 11 11 11 10 11 13 16 19 21 23 22 20 18 17 17 16 16 18 20 19 17
15 14 15 15 15 16 16 18 18 17 16 15 15 13 12 10 10 12 13 13 12 12 11 11 11 9 10 11 13 15 18 21 22 20 18 17 15 15 16 17 19 20 20
18 18 17 18 18 19 19 20 20 19 17 16 15 13 12 10 10 12 14 14 13 12 11 11 11 10 10 10 11 13 16 19 21 21 20 17 15 14 15 16 17 19 20
20 20 19 20 21 22 22 21 21 20 19 17 16 14 13 11 10 11 14 14 14 13 12 12 11 10 11 9 9 10 13 16 19 19 19 18 16 15 16 16 17 18 19
22 22 21 21 22 23 23 22 22 22 21 18 17 16 15 13 11 10 12 14 14 14 13 12 12 11 12 11 10 9 9 13 16 17 17 18 18 18 18 17 17 17 18
22 22 22 23 24 25 24 22 21 22 22 19 18 18 18 17 13 11 12 13 14 14 14 13 13 13 13 13 11 8 6 9 12 14 15 16 18 20 20 19 18 17 17
21 22 23 24 25 26 24 22 21 22 22 21 21 21 20 19 18 16 14 13 14 15 15 15 15 15 15 14 13 9 6 6 8 10 12 15 17 19 20 19 18 18 17
23 24 24 24 25 25 25 24 24 24 25 25 24 23 22 22 21 20 17 15 14 15 16 17 17 16 16 15 14 12 8 6 6 7 10 13 15 17 18 19 19 18 17
24 26 26 25 26 26 27 27 27 27 27 28 28 27 25 25 24 21 20 18 16 17 18 19 20 19 18 18 16 14 12 10 8 7 8 10 12 13 15 16 17 17 17
25 26 26 27 27 28 28 29 29 29 29 30 29 29 29 28 26 24 20 20 21 21 21 22 23 23 22 20 19 17 15 13 11 10 9 9 10 11 13 14 15 16 16
27 28 27 28 29 29 29 29 30 31 31 31 30 30 31 29 28 25 23 23 23 24 25 25 26 26 25 24 23 21 18 16 15 13 12 11 11 11 12 12 13 14 14
28 28 28 28 28 27 28 29 30 30 30 29 29 29 29 28 27 26 25 25 25 26 27 28 28 29 28 28 26 24 22 20 18 16 15 15 15 14 14 14 13 13 14

GEFSSE_500_meanwind_018.txt.gz
Wind_Speed
4 6 9 11 12 13 13 11 10 10 10 8 7 8 8 8 8 6 4 4 5 7 8 11 15 19 20 18 15 12 9 8 7 8 9 10 10 9 9 8 9 11 11
2 5 8 11 13 14 13 11 10 10 10 9 8 8 9 9 8 7 5 5 6 6 8 10 13 19 22 21 18 15 12 10 8 9 9 9 10 9 7 7 6 9 11
3 4 8 11 13 14 13 11 10 10 10 10 9 9 9 9 8 7 7 7 6 6 7 7 10 17 22 23 20 17 15 13 11 10 9 9 9 9 7 6 5 7 10
4 5 7 10 12 13 12 11 10 10 11 11 11 10 10 10 9 8 8 7 6 5 5 4 4 12 20 24 22 19 17 15 14 12 12 11 11 10 8 7 5 6 8
5 5 7 9 10 11 10 9 9 10 11 11 11 11 11 10 9 9 8 8 6 5 4 4 1 7 16 22 22 20 19 18 18 16 14 12 11 10 8 7 6 6 6
6 6 7 8 9 9 9 8 9 9 10 11 12 12 12 11 10 9 9 8 6 5 4 3 3 4 11 18 19 19 19 20 22 20 16 13 11 10 8 7 6 6 6
7 6 7 8 8 8 7 8 9 9 10 11 12 12 12 11 10 9 9 8 7 6 4 1 1 3 7 11 14 16 16 19 22 22 19 15 12 10 9 8 7 7 6
8 7 6 7 7 7 8 9 10 10 10 11 12 12 13 12 11 10 9 9 8 7 5 4 3 3 5 7 9 11 12 14 17 19 17 14 12 10 7 7 8 8 7
9 7 6 6 6 7 9 10 11 12 12 12 14 14 14 14 13 11 10 9 8 8 7 7 7 7 7 8 9 9 10 11 12 13 11 8 6 7 5 6 9 9 9
8 7 7 6 6 7 9 11 12 13 14 15 16 16 16 16 14 12 10 9 9 9 9 9 10 10 10 10 10 11 10 11 11 11 10 7 4 4 5 6 8 10 11
8 8 7 7 7 7 9 11 12 14 15 16 17 17 17 17 16 13 11 10 10 10 10 10 11 13 13 13 13 13 13 13 13 13 11 9 8 7 7 8 9 10 12
9 9 9 8 8 9 10 12 13 14 15 16 17 18 17 17 17 15 12 11 10 10 9 9 11 14 15 16 16 16 16 16 16 16 14 13 11 10 9 9 9 10 12
10 11 11 11 11 11 12 13 14 15 16 17 18 18 18 18 18 16 12 11 10 10 9 9 11 13 15 17 17 18 18 19 19 19 18 16 15 13 12 11 11 11 13
12 14 14 14 13 13 14 15 15 16 16 18 19 19 19 18 18 16 13 12 10 10 9 9 11 13 14 15 16 17 18 20 21 21 20 19 17 15 14 13 12 13 14
15 17 18 17 16 15 15 15 16 16 16 17 19 19 19 18 18 17 14 12 11 10 10 10 11 13 14 15 15 16 18 19 20 21 21 20 19 17 16 15 14 15 16
17 18 18 18 18 16 16 16 16 17 17 17 18 18 18 18 18 18 16 14 12 12 11 11 12 12 13 14 15 16 17 18 19 20 21 21 20 19 17 16 15 16 18
16 17 16 17 18 18 17 17 17 18 18 18 18 18 18 17 17 18 17 15 13 13 13 13 12 13 13 14 14 14 15 15 17 19 20 21 20 19 17 16 15 16 19
17 16 15 16 17 18 19 19 18 18 18 18 18 18 18 17 17 18 18 17 15 14 14 14 14 14 13 13 13 12 12 13 15 17 18 19 19 19 18 16 15 16 18
18 18 16 16 18 19 19 20 20 20 19 19 19 19 19 19 19 19 20 19 17 15 16 17 16 15 14 13 13 12 11 11 13 15 16 18 19 19 18 16 15 14 15
18 19 19 18 19 20 20 20 21 21 20 20 21 20 21 21 20 20 21 20 18 16 17 18 18 17 16 14 14 12 11 11 11 12 14 16 18 19 18 17 15 14 14
19 20 21 21 21 21 21 20 20 21 20 20 21 22 23 23 22 21 22 22 20 19 19 20 19 19 17 16 15 14 12 11 10 10 11 13 15 16 17 17 16 15 15
21 20 21 21 22 22 22 21 21 21 22 22 22 23 24 25 24 24 24 24 23 21 21 21 21 21 20 19 17 15 13 12 9 8 9 10 13 14 15 15 16 15 15
21 21 21 21 21 22 22 21 22 22 23 23 24 25 26 27 26 25 24 25 25 24 22 20 20 23 22 21 19 18 15 13 10 8 7 8 10 11 12 13 14 15 15
22 22 21 21 20 20 20 21 22 23 23 24 26 27 28 28 28 27 26 26 26 25 22 21 18 19 21 21 20 19 19 17 14 10 8 7 7 9 10 11 13 16 17
23 22 20 19 19 19 19 20 22 24 25 26 27 28 29 29 28 26 26 26 27 25 23 20 19 19 20 21 21 20 20 20 18 14 11 9 8 8 9 10 12 14 16
22 20 19 19 20 20 21 22 23 25 27 27 28 28 28 27 26 25 25 26 26 25 23 22 21 20 20 21 23 23 22 22 22 18 15 13 11 10 9 10 11 12 14

GEFSSE_500_meanwind_024.txt.gz
Wind_Speed
8 10 12 14 15 15 13 12 11 11 10 9 8 7 8 7 6 4 2 3 5 7 8 10 11 14 16 17 16 14 12 13 15 19 20 21 21 21 20 18 15 14 12
5 8 10 12 13 13 13 11 10 10 10 10 10 9 8 8 6 4 3 4 4 6 7 9 12 15 18 19 18 15 13 12 11 14 16 18 19 18 16 15 14 13 12
4 6 9 11 12 12 12 10 10 10 10 11 11 11 10 9 7 5 4 4 4 5 6 8 10 14 18 21 21 18 15 14 11 11 12 13 14 14 12 11 10 11 12
3 4 7 10 11 11 10 10 10 10 11 12 12 12 11 10 8 6 5 5 5 5 5 6 7 10 15 19 21 20 17 16 13 10 8 9 10 10 10 9 8 9 11
4 3 6 8 9 9 9 10 10 10 11 11 12 13 13 12 10 8 7 6 6 6 5 5 5 6 12 17 20 21 19 17 14 10 8 8 8 9 9 9 8 8 9
4 3 5 7 8 8 8 9 10 10 11 11 12 13 13 13 12 10 9 8 7 6 6 5 3 3 8 13 18 20 19 17 15 13 12 10 9 10 11 10 9 8 9
4 3 4 5 6 6 7 8 8 10 11 11 12 13 13 13 13 12 11 9 8 7 6 5 3 2 5 10 15 18 18 17 16 16 15 14 12 12 12 12 10 9 9
5 4 4 4 5 5 6 7 8 9 11 12 12 13 13 13 13 13 12 11 9 8 7 5 4 3 5 8 12 15 15 16 17 18 18 17 16 15 14 13 11 10 9
6 5 4 4 4 4 6 7 8 10 11 12 13 13 13 13 13 13 13 11 9 8 7 6 6 5 5 7 9 11 13 15 15 16 18 19 19 17 16 14 12 10 10
6 6 6 5 5 5 6 7 8 9 11 12 13 14 13 12 12 13 13 11 10 9 8 7 7 8 8 8 8 10 11 12 12 11 13 14 15 15 15 14 12 11 10
7 8 8 7 6 7 7 8 9 9 10 11 12 13 13 12 12 12 12 11 10 9 9 8 8 9 10 10 10 10 11 11 10 11 11 11 10 10 11 12 12 11 11
8 9 10 10 9 9 9 9 9 9 10 10 11 12 13 13 12 12 12 11 10 9 9 8 8 9 11 12 12 12 12 11 10 11 12 11 10 10 10 12 12 12 12
11 12 12 13 12 11 12 12 11 10 10 9 10 11 12 12 12 12 12 11 10 9 8 8 7 8 10 13 14 15 15 14 14 14 14 14 14 13 12 12 12 12 12
13 15 16 16 15 15 14 14 13 12 10 9 8 9 11 11 12 12 13 12 10 9 8 8 8 8 10 13 15 17 18 18 18 18 18 18 17 16 14 14 13 13 12
16 18 19 19 18 17 16 15 15 14 11 9 8 8 9 10 10 11 13 13 11 10 8 8 9 10 11 12 14 16 18 19 21 21 22 21 21 19 18 17 16 15 14
17 19 20 20 20 19 17 16 15 14 13 11 9 8 8 9 10 11 12 13 12 11 9 9 10 11 12 13 14 15 17 19 20 21 22 23 22 22 20 19 18 17 16
16 17 18 18 18 18 16 15 14 14 14 13 11 9 8 8 9 11 12 13 13 12 11 11 12 12 13 14 15 15 17 17 19 20 22 22 23 22 21 20 19 18 18
16 16 16 15 16 15 14 14 14 15 14 14 13 12 11 9 9 10 11 12 13 13 13 12 13 14 14 15 15 16 16 16 17 19 20 22 22 23 22 21 20 19 18
15 15 14 14 14 14 13 13 15 16 16 16 16 14 14 12 11 11 12 13 14 14 15 14 13 15 16 17 17 16 16 16 16 17 18 20 21 22 22 21 20 19 18
17 16 15 16 16 16 16 16 17 18 18 18 16 15 14 14 14 13 13 14 14 15 16 16 15 15 17 18 18 17 16 16 16 16 16 18 19 20 20 20 19 18 17
20 18 18 18 18 19 19 19 19 19 19 18 18 17 16 15 15 16 16 16 16 17 18 18 17 17 17 19 20 19 18 17 16 16 15 15 17 19 20 20 20 19 18
22 22 22 21 21 20 21 21 20 20 19 19 18 18 17 17 17 18 18 19 19 20 21 21 20 19 18 19 20 21 20 18 17 16 14 14 15 17 20 21 21 21 20
23 23 24 25 24 23 23 22 21 20 18 18 18 18 18 19 19 20 21 21 22 23 23 23 22 20 19 19 20 21 21 20 18 16 14 13 13 15 18 21 22 22 21
26 25 26 27 26 25 24 22 21 19 17 17 17 18 20 21 22 22 23 24 24 24 24 25 24 22 20 20 21 22 23 21 19 17 15 13 13 14 16 20 21 22 22
27 28 28 28 26 25 24 22 21 19 18 18 19 20 22 23 24 24 24 24 24 24 25 26 26 25 23 21 21 22 23 24 23 20 18 15 13 13 14 17 19 20 21
29 30 30 26 24 23 23 21 20 20 20 20 22 23 24 24 25 25 25 24 24 24 25 26 27 27 24 22 21 22 23 24 26 24 21 18 16 14 14 15 16 17 18

GEFSSE_500_meanwind_030.txt.gz
Wind_Speed
9 12 13 14 14 14 14 14 15 15 16 15 14 13 12 11 9 7 6 5 4 3 3 4 5 6 7 8 9 11 12 13 15 16 17 19 19 19 19 18 17 16 14
6 9 11 12 13 13 13 14 14 15 15 15 14 13 12 11 9 7 6 5 5 4 3 4 5 7 9 10 11 12 12 12 12 14 16 17 18 18 19 19 18 17 15
3 6 8 10 11 11 12 13 13 14 14 14 13 13 12 11 9 8 6 5 5 5 4 5 6 7 9 11 13 13 12 11 11 12 13 14 16 16 17 18 18 18 16
1 4 6 8 9 10 11 12 12 13 13 13 13 12 12 11 10 8 7 6 5 5 5 5 6 7 9 12 14 14 14 13 12 11 11 11 12 13 14 15 16 17 17
2 2 4 6 7 8 9 10 11 12 12 12 12 12 12 12 11 10 9 7 6 5 5 6 5 6 7 9 12 15 15 14 12 11 10 10 10 10 10 11 11 11 12
2 1 2 4 5 6 8 9 10 11 11 12 12 12 11 11 11 11 10 8 7 5 5 5 5 4 4 6 9 13 14 14 13 11 10 9 9 8 7 8 8 8 9
1 1 1 3 4 5 6 7 9 10 11 11 11 11 11 11 11 11 11 9 7 6 5 5 4 4 3 4 7 11 14 15 14 13 11 9 8 8 7 7 8 8 8
1 1 1 2 3 4 5 7 8 9 10 11 11 11 11 11 11 11 11 10 8 6 5 4 4 3 2 2 5 9 12 15 15 14 13 11 10 10 9 9 10 9 9
2 2 2 2 3 4 5 6 7 8 9 10 11 11 11 11 12 12 12 11 9 7 6 4 3 3 3 3 4 6 9 12 12 13 13 13 13 12 11 10 10 10 10
3 4 4 4 4 5 5 6 7 8 8 9 9 10 11 11 11 12 12 11 10 8 6 5 3 3 4 4 4 5 7 9 10 11 11 12 13 14 14 13 12 11 11
5 5 6 7 7 7 7 8 8 9 9 8 8 8 9 10 10 11 11 11 10 8 6 4 3 4 5 6 6 6 7 8 8 9 10 11 12 13 14 13 12 11 11
6 7 8 9 10 10 10 10 10 11 11 10 9 8 8 8 9 10 10 10 10 9 7 4 3 4 6 8 8 8 8 9 9 9 9 9 9 10 10 10 10 10 9
8 9 10 11 12 13 13 13 12 13 13 12 10 9 7 7 7 8 9 9 9 8 7 6 4 4 6 8 10 11 11 11 10 10 10 9 9 9 8 9 9 9 9
12 11 12 13 14 15 16 16 15 15 15 13 11 10 9 7 7 7 8 8 8 8 7 6 6 5 6 8 10 12 13 14 14 13 13 12 12 11 10 10 10 10 10
16 15 15 15 16 17 18 18 18 17 16 15 12 11 10 9 8 7 7 8 8 8 8 7 7 7 7 8 10 12 15 16 16 16 16 15 15 15 14 14 13 13 12
19 19 18 17 18 19 19 19 19 18 17 16 14 12 11 11 11 11 10 10 10 9 9 8 8 8 9 9 10 12 14 16 17 18 18 18 19 19 18 18 18 17 17
21 21 20 19 19 19 19 19 19 18 16 15 14 12 12 12 14 13 13 13 11 11 12 11 11 10 11 11 11 12 13 15 17 18 19 20 21 21 22 22 22 21 21
22 21 20 19 18 18 19 18 17 16 15 14 13 13 14 14 14 15 15 15 14 14 14 14 14 13 13 13 13 13 14 15 16 17 19 20 21 22 23 23 23 23 22
22 21 20 19 18 18 18 17 17 16 15 15 15 15 16 16 16 16 17 16 16 16 17 17 16 16 15 15 15 15 15 16 17 18 19 20 21 22 23 24 24 24 23
24 22 21 20 19 19 19 19 18 18 17 16 17 17 18 17 17 18 18 18 18 19 19 19 19 19 18 17 16 16 17 17 18 19 19 20 21 21 23 23 24 24 24
25 23 21 22 22 21 21 21 20 19 18 18 18 18 18 18 19 18 18 19 21 22 22 23 22 21 20 20 19 18 18 19 20 20 20 21 21 21 22 23 24 24 25
27 24 23 24 24 24 23 23 22 21 21 20 20 19 19 19 19 19 20 21 23 24 24 24 24 24 23 23 22 20 20 20 20 20 20 21 21 21 21 22 23 24 25
28 26 25 25 26 27 26 26 24 24 23 22 21 20 20 20 21 20 21 23 24 24 25 25 25 26 26 26 25 22 22 21 21 21 21 22 22 21 21 21 23 24 25
29 28 28 27 29 30 30 28 27 26 24 23 22 21 22 22 22 23 23 24 25 25 26 27 26 27 28 28 28 27 24 22 22 22 23 23 22 22 21 20 21 23 25
31 31 31 30 32 34 34 31 29 27 24 23 22 22 23 23 24 24 25 26 26 27 27 28 28 28 29 30 30 29 27 23 23 24 23 23 23 22 20 19 20 22 24
34 34 34 34 36 36 36 35 31 27 24 22 21 22 23 24 25 25 25 26 26 26 27 27 27 27 28 29 30 30 28 25 24 24 23 24 24 23 21 19 19 20 22

GEFSSE_500_meanwind_036.txt.gz
Wind_Speed
10 12 13 14 14 14 14 14 14 15 15 14 12 11 10 9 8 7 6 5 4 4 4 5 5 6 7 8 10 12 14 16 17 18 18 17 16 16 15 15 14 13 12
8 10 11 12 12 13 13 13 14 14 14 14 13 11 10 9 7 6 6 5 4 4 3 3 4 6 7 8 8 10 12 14 16 17 17 18 17 17 17 16 15 14 14
7 8 9 11 11 12 12 13 13 14 14 13 13 12 10 9 8 6 5 4 4 3 2 2 3 5 7 8 9 9 11 12 13 16 16 17 17 17 18 17 16 16 15
6 7 8 9 10 10 11 12 13 13 13 13 13 12 11 9 8 6 5 4 3 2 2 2 3 4 6 8 10 11 11 12 12 13 14 15 15 15 16 17 17 16 16
6 6 7 8 8 9 10 11 11 12 12 12 12 11 11 10 9 7 5 3 2 2 1 2 3 4 6 7 9 11 12 12 12 13 13 12 13 14 15 15 15 15 15
6 6 6 7 7 8 8 9 10 10 11 11 11 11 10 9 9 8 6 4 2 1 1 2 2 3 4 6 8 10 12 12 11 11 12 11 11 12 12 12 12 13 14
5 5 6 6 6 6 6 7 8 8 9 9 10 9 9 9 8 8 7 5 3 2 1 1 2 3 3 4 7 9 11 12 11 11 11 11 11 11 10 10 10 12 12
4 4 4 4 4 4 4 5 5 6 7 7 8 8 8 8 8 8 7 6 4 3 1 0 2 2 3 4 5 7 10 11 11 11 11 12 12 11 10 9 9 10 11
3 3 3 3 2 2 1 1 2 4 5 5 6 6 6 7 7 7 7 6 5 4 2 1 1 2 2 3 4 6 8 10 11 11 11 12 12 12 11 10 10 10 11
2 1 1 1 2 2 2 2 2 2 3 4 4 4 4 5 5 5 6 5 5 4 3 2 2 2 2 3 4 6 8 9 11 12 12 12 12 12 12 12 11 12 13
2 1 2 3 4 4 5 5 5 4 4 4 4 4 4 3 3 3 4 4 4 4 5 4 3 2 3 3 5 6 8 9 10 11 12 12 13 13 14 14 13 13 14
3 3 4 5 6 6 7 8 8 7 7 6 6 6 5 5 4 3 3 3 4 4 5 4 4 3 3 4 5 6 8 9 9 10 11 12 13 13 13 14 15 15 14
5 6 6 7 8 9 9 9 10 10 9 9 9 8 8 7 6 5 4 4 4 5 5 5 4 3 4 4 6 7 9 9 10 11 11 11 11 11 12 13 14 15 15
8 8 9 10 10 11 11 11 11 12 12 12 11 10 10 10 9 8 7 7 6 6 6 6 5 5 5 5 7 8 10 11 12 12 12 12 11 11 11 13 13 14 14
11 12 12 13 13 13 14 14 13 13 13 13 13 13 12 11 11 10 9 9 9 8 7 7 6 6 6 6 7 8 10 12 13 15 15 15 15 14 13 13 13 14 14
16 16 16 16 16 16 15 15 15 15 14 14 14 14 14 13 13 12 12 12 11 10 10 9 8 7 7 8 8 9 11 12 14 16 17 17 17 17 17 17 17 16 16
19 19 19 19 18 18 18 17 16 16 16 15 15 15 15 15 14 13 14 14 13 12 12 12 11 9 9 9 10 11 12 13 14 16 17 19 19 20 20 20 20 20 19
22 22 21 21 20 20 19 18 18 17 16 16 16 16 16 16 16 15 15 15 14 15 15 14 13 12 11 12 12 12 13 14 15 16 17 19 20 21 22 23 23 23 23
26 25 24 23 23 22 21 21 20 19 18 17 17 17 17 17 17 17 16 16 16 16 15 14 14 15 15 14 14 14 14 14 15 17 18 19 20 21 22 23 24 24 24
29 27 26 25 25 25 24 24 23 23 21 20 20 20 20 20 19 18 18 18 18 17 17 16 17 17 17 17 17 17 17 16 17 18 19 20 21 22 22 23 23 24 25
31 30 29 28 28 28 27 27 27 26 24 24 23 23 22 22 21 20 20 19 19 19 19 18 19 19 19 20 20 20 20 20 20 20 20 21 22 23 23 23 23 23 24
35 33 32 31 31 30 31 30 30 29 28 27 26 26 25 23 22 22 21 20 20 20 20 20 21 21 21 21 21 22 22 23 23 22 22 22 23 24 24 23 23 23 23
37 36 35 34 34 34 34 34 33 33 31 30 29 28 27 25 24 23 22 21 21 21 21 21 21 22 22 23 23 24 25 25 25 24 24 24 24 25 25 24 23 23 23
38 38 38 37 37 37 37 37 38 37 35 34 32 30 29 28 25 23 23 22 22 22 23 23 23 23 24 24 25 25 26 27 27 27 27 26 26 26 25 25 24 24 24
37 39 40 40 40 39 39 39 39 40 38 38 35 33 30 28 26 24 23 23 24 24 24 24 24 24 24 25 25 26 27 27 28 28 27 27 26 26 26 26 26 25 24
36 39 41 42 42 41 41 41 41 42 40 38 36 34 33 30 27 25 23 24 24 24 24 24 24 25 25 25 26 26 26 26 27 27 27 27 25 24 25 26 26 26 25

GEFSSE_500_meanwind_042.txt.gz
Wind_Speed
9 10 11 12 13 13 14 14 14 14 13 12 10 9 8 7 6 5 4 3 3 2 3 3 4 5 7 8 9 11 12 12 14 14 14 13 13 12 11 10 10 10 10
7 9 10 11 12 12 13 14 14 14 13 12 11 10 8 7 6 5 4 3 3 2 2 3 3 4 5 7 8 9 11 12 13 15 15 15 15 15 13 13 12 12 11
6 7 9 10 10 11 12 13 13 13 13 12 11 10 9 8 7 5 4 3 2 2 1 1 2 3 4 6 7 9 10 12 13 14 15 16 17 17 16 15 15 14 13
5 6 8 8 9 9 10 11 12 12 12 12 11 11 10 9 8 6 5 3 3 2 1 0 2 3 4 6 7 8 9 10 11 13 14 15 16 16 16 15 15 15 14
5 5 6 7 7 8 9 9 10 10 10 11 11 10 10 9 8 7 6 4 3 3 2 1 1 3 4 6 7 8 9 9 10 12 13 14 14 15 15 15 15 15 15
5 5 5 6 6 6 6 7 7 8 8 9 9 9 9 8 8 7 7 6 5 4 3 3 2 3 4 5 7 8 9 10 10 11 12 12 12 12 13 13 13 13 14
6 5 5 5 5 4 4 5 5 6 6 7 7 7 7 7 7 7 7 7 6 5 4 4 3 3 3 4 6 7 8 9 10 10 11 11 10 10 10 10 10 10 12
6 5 5 4 3 3 3 2 3 3 4 4 5 5 5 5 6 6 6 6 6 6 5 4 4 3 3 4 5 6 7 8 9 9 9 10 9 9 9 10 9 9 9
5 5 4 4 3 2 2 1 1 1 2 3 3 3 4 4 5 5 6 6 7 6 6 5 4 3 3 4 5 5 6 7 8 8 9 8 8 8 8 9 9 9 9
4 4 4 4 4 4 4 3 4 3 3 3 4 4 4 4 5 5 5 6 7 7 7 6 5 4 4 4 5 6 6 6 7 8 9 9 9 9 9 9 10 10 9
3 3 4 4 5 5 6 6 7 7 6 6 6 6 6 6 6 6 6 6 6 6 7 7 6 5 5 5 5 5 5 6 6 7 8 9 9 9 9 10 10 10 10
4 4 5 5 6 7 8 9 9 10 10 10 10 9 9 8 8 8 8 7 7 7 7 8 7 6 6 6 5 5 5 5 5 7 8 8 9 9 9 10 11 11 11
7 7 7 7 8 8 9 10 11 12 12 12 12 11 11 11 10 11 10 9 9 8 8 8 8 8 7 7 7 6 6 5 4 7 7 8 9 9 10 11 11 12 12
10 10 10 10 10 11 11 12 13 14 14 14 14 14 13 13 12 12 12 11 10 10 10 10 9 9 8 7 7 7 7 6 5 7 8 8 9 10 10 11 12 12 12
13 13 13 13 13 13 14 15 15 16 16 17 17 16 16 15 14 14 13 13 12 12 12 11 10 10 10 9 8 8 8 7 7 8 9 10 10 11 11 11 12 12 12
17 17 16 16 15 15 15 16 16 17 18 18 19 19 18 17 17 17 16 15 14 14 14 13 12 11 11 11 10 10 10 9 9 9 10 11 12 12 13 13 13 13 14
22 20 19 19 18 18 18 18 18 18 19 19 20 20 20 20 19 18 17 17 16 16 16 15 14 13 13 12 12 12 11 11 11 11 11 11 13 13 14 15 15 15 16
26 24 23 22 22 21 21 21 21 20 20 19 20 21 21 21 21 20 20 19 18 17 17 17 16 15 14 13 13 13 13 13 12 12 12 12 13 14 15 16 16 17 18
29 28 27 25 25 25 24 23 23 22 22 21 21 22 22 22 22 22 22 21 21 20 19 19 18 17 16 15 15 15 15 15 15 14 14 14 14 14 16 17 18 19 20
33 32 31 29 28 27 27 26 26 26 25 24 23 23 24 23 23 23 23 23 23 22 21 21 20 20 19 18 17 17 17 17 17 17 17 17 16 16 17 18 18 20 21
36 35 35 34 32 31 30 30 30 30 29 27 25 24 25 25 25 25 26 26 25 25 24 23 23 22 21 20 20 19 19 19 19 20 20 20 19 18 19 19 19 20 21
38 38 37 36 35 34 34 34 34 34 32 29 27 26 26 27 27 28 28 28 27 27 27 25 24 23 22 22 22 21 21 21 21 21 22 23 22 21 22 21 21 21 22
39 39 38 38 37 37 36 36 36 36 34 32 30 30 30 30 30 30 30 30 30 29 28 27 26 24 23 23 23 22 22 22 23 23 23 24 25 23 24 24 24 23 22
38 38 38 38 38 38 37 37 37 38 36 35 34 33 32 33 32 32 32 32 32 31 30 29 27 26 25 24 24 24 24 24 25 25 25 25 26 26 25 25 26 25 23
36 36 37 37 37 37 38 38 38 40 40 39 37 37 36 36 36 36 35 34 32 31 32 31 29 27 26 25 26 25 25 25 26 25 26 26 26 26 26 25 25 26 25
35 35 35 36 36 36 36 36 37 39 39 40 41 40 39 39 39 38 36 34 32 31 31 31 30 28 27 26 26 26 26 26 26 26 26 26 26 25 25 25 25 26 26

GEFSSE_500_meanwind_048.txt.gz
Wind_Speed
10 11 11 12 12 13 13 13 13 13 13 13 13 12 10 9 8 7 5 4 4 3 4 5 6 9 12 14 17 18 19 19 18 17 16 15 14 13 11 10 10 9 8
9 9 10 10 11 11 11 12 12 12 12 12 12 12 11 10 9 8 6 5 4 4 3 4 5 7 9 12 15 16 16 16 17 17 17 16 16 15 14 13 12 11 10
7 8 8 9 9 9 10 10 10 11 11 11 11 11 11 10 9 8 7 6 5 4 3 3 4 5 6 9 11 13 14 14 14 16 16 16 17 17 16 15 14 12 11
7 7 7 7 8 8 8 8 9 9 10 10 10 11 11 10 9 9 8 6 5 3 2 2 3 4 5 7 9 10 11 13 14 14 15 16 16 17 17 16 15 14 12
6 6 6 6 6 6 6 6 6 7 7 8 8 9 9 10 9 9 8 7 5 4 2 0 2 3 5 6 7 8 9 11 13 13 14 15 16 16 16 16 15 13 12
5 5 5 5 5 4 4 4 4 4 5 6 6 7 7 8 9 8 8 8 6 5 3 2 2 3 4 5 6 7 8 9 11 12 12 13 13 13 13 13 13 11 10
5 4 4 4 4 3 2 1 2 2 3 3 4 5 5 6 7 7 7 7 7 6 5 4 3 3 4 4 5 6 7 8 9 10 10 10 9 9 10 10 10 9 9
4 4 3 3 3 3 2 1 1 2 2 3 4 4 4 4 5 6 6 6 6 6 6 5 5 4 4 4 4 5 6 7 8 8 8 7 7 7 7 7 6 6 7
4 4 4 4 4 4 3 3 4 4 4 5 5 6 6 5 5 5 5 6 6 6 6 6 6 5 5 4 4 4 4 6 6 6 6 6 6 6 5 5 5 5 6
4 5 5 6 6 5 5 5 6 6 7 7 7 8 8 8 8 7 6 6 6 6 7 7 7 6 5 5 4 4 4 4 5 5 5 5 5 5 4 4 5 5 5
5 6 7 7 7 7 7 7 8 8 9 9 10 10 11 11 10 10 9 8 8 8 8 8 8 7 6 6 5 4 4 4 4 4 5 5 5 5 5 5 5 5 6
7 8 8 9 9 9 9 9 9 9 10 10 11 12 13 13 12 12 12 11 10 10 9 9 8 8 7 6 5 4 4 4 4 3 4 4 5 5 5 5 5 5 7
10 11 11 11 11 11 11 11 11 11 11 11 12 13 14 14 14 14 14 13 13 12 11 10 10 8 7 6 5 4 5 5 4 4 4 4 5 5 5 5 6 6 7
13 13 14 14 14 14 14 13 13 13 13 13 13 13 14 15 16 16 16 16 15 14 13 12 11 10 8 7 6 5 5 6 5 5 5 5 5 6 6 6 6 7 7
17 16 16 16 16 17 17 16 16 15 15 15 14 14 15 16 17 17 17 17 17 16 16 15 13 12 11 9 8 7 7 7 6 6 6 6 6 6 7 7 7 8 8
22 21 20 19 19 19 19 19 18 17 17 17 16 16 16 16 17 18 18 18 18 18 18 17 16 15 13 11 10 10 9 9 8 7 7 7 8 8 8 8 9 9 9
26 25 24 23 22 21 21 21 21 20 19 19 18 18 17 17 17 18 18 19 19 20 19 19 18 17 15 14 13 12 11 11 10 9 9 9 9 9 9 10 10 10 10
30 29 28 27 26 25 24 24 23 22 22 22 21 19 19 18 18 18 18 19 20 20 20 20 20 19 18 17 15 14 13 13 12 11 11 10 10 10 10 10 11 11 12
33 32 31 30 30 28 27 26 26 26 25 24 23 21 20 20 21 20 19 20 20 21 21 21 22 21 21 20 18 17 16 14 14 13 13 12 12 12 12 12 12 13 14
35 34 33 33 32 31 30 29 28 27 26 25 25 24 23 23 22 22 21 20 21 21 21 22 23 23 23 22 21 21 20 18 16 16 16 15 15 14 14 14 14 15 15
39 39 38 36 35 34 32 31 30 29 29 28 28 27 26 25 24 24 22 21 21 21 21 23 23 24 24 23 23 23 23 21 20 19 18 17 18 17 16 16 17 17 17
41 42 41 40 38 36 35 34 33 32 32 30 28 28 29 29 27 25 24 23 23 22 22 23 25 26 26 26 25 25 24 24 23 22 20 19 19 20 20 20 20 19 19
43 43 43 42 41 39 38 37 36 35 35 34 32 32 31 31 29 28 26 25 24 23 23 22 25 27 27 27 28 27 27 27 25 24 23 21 21 22 22 21 21 21 22
42 44 44 43 42 41 40 39 38 38 36 36 35 35 33 32 32 31 29 27 25 24 24 24 24 26 27 27 28 29 29 28 27 26 25 24 23 23 23 22 22 23 24
37 38 39 40 40 40 39 39 38 38 37 37 37 35 33 33 32 31 31 29 28 26 26 26 26 26 27 28 29 30 30 30 30 28 28 27 26 25 24 23 22 22 23
33 32 33 35 35 37 38 38 37 37 36 36 36 35 34 34 33 30 29 28 28 28 28 28 26 26 27 27 29 30 31 30 30 29 29 29 27 27 26 25 23 23 23

GEFSSE_500_meanwind_054.txt.gz
Wind_Speed
10 11 11 12 13 14 15 15 16 16 16 16 15 13 12 11 9 8 7 6 5 3 2 2 4 7 10 12 15 16 16 17 17 16 14 13 13 13 12 11 11 11 11
9 9 9 10 11 12 13 14 15 15 16 16 15 14 13 12 10 9 8 7 6 4 3 1 1 3 6 8 11 13 15 16 16 16 16 16 15 14 13 13 13 13 12
7 7 8 8 9 10 12 13 14 14 15 15 15 14 13 12 11 10 9 8 7 6 4 2 1 1 4 6 8 10 13 15 16 16 16 16 16 15 15 16 16 15 13
6 6 6 6 7 8 10 11 11 12 13 13 13 13 13 12 11 10 9 8 7 7 5 4 3 1 2 4 6 8 10 11 12 13 14 14 15 16 16 16 16 15 14
4 4 4 4 5 6 7 8 9 10 11 11 12 12 12 12 11 10 10 9 9 8 7 6 4 3 1 3 4 6 7 8 10 11 12 13 14 15 15 15 15 15 14
3 3 2 3 3 4 5 6 6 7 8 9 9 10 10 10 10 10 9 9 9 8 8 7 6 4 3 3 4 5 6 7 7 8 9 11 12 12 12 12 12 13 12
3 2 2 2 1 2 2 3 4 5 6 6 7 7 8 8 8 8 8 9 8 8 8 8 7 6 4 3 4 4 5 6 6 7 8 8 9 9 9 9 9 9 10
3 3 3 3 2 1 0 1 2 3 4 5 5 6 6 7 7 7 7 7 8 8 8 8 7 7 6 5 4 4 5 5 6 6 7 6 6 7 7 7 7 7 7
4 4 4 4 4 3 3 2 2 3 4 4 5 6 6 7 7 7 6 6 6 7 7 7 7 6 6 5 5 4 4 4 5 5 5 5 6 6 5 5 5 6 6
4 5 6 6 6 6 5 5 5 5 5 6 6 6 7 7 7 7 7 7 6 6 6 6 6 6 6 5 5 5 4 4 4 4 4 5 5 4 4 4 4 4 4
7 7 7 7 8 8 8 8 8 8 7 8 8 8 8 8 9 9 9 8 8 7 7 6 5 5 5 5 5 5 4 4 4 4 4 4 4 4 4 4 4 4 4
10 10 9 9 10 10 11 11 11 10 10 10 10 10 10 10 10 10 10 10 9 9 8 7 6 6 6 6 6 5 4 4 3 4 4 4 4 4 4 4 4 4 4
13 13 13 12 13 13 13 13 13 13 13 12 12 12 12 12 12 12 12 12 11 10 10 9 8 7 7 6 6 5 4 4 4 4 4 4 4 5 5 5 4 4 4
17 17 16 16 16 17 17 17 16 16 15 15 15 15 14 14 14 14 14 13 13 12 12 11 10 9 8 7 7 6 5 4 4 4 4 4 5 5 5 5 5 5 5
21 21 21 21 21 21 21 21 20 19 19 18 18 17 16 16 16 16 16 15 15 15 14 13 12 11 10 9 8 7 6 5 5 5 6 6 6 6 6 6 6 6 6
24 25 24 24 25 25 25 25 24 23 22 21 21 20 19 18 17 17 17 17 16 16 16 15 14 13 12 11 11 10 9 7 6 6 6 6 6 6 6 6 6 7 6
28 28 28 28 27 27 27 27 27 27 26 24 24 23 22 20 19 18 18 17 17 17 17 16 15 15 14 13 13 12 10 9 8 8 8 8 7 7 7 7 7 7 7
31 32 32 31 31 31 31 31 30 30 29 28 26 25 24 23 22 21 20 19 18 18 19 18 18 17 17 16 15 14 12 11 11 11 10 10 9 9 9 9 8 8 8
35 35 35 34 34 34 33 33 33 32 32 30 28 28 27 27 26 24 22 21 21 21 21 20 19 19 19 18 17 16 15 14 13 13 12 12 11 11 11 11 10 10 10
39 39 39 39 38 38 37 35 35 34 33 32 30 29 28 27 26 25 23 23 23 22 21 21 21 21 21 20 19 19 18 17 16 16 15 14 14 13 13 13 12 12 11
42 43 43 42 42 42 41 40 37 36 35 34 33 32 30 27 26 26 25 24 23 23 23 23 23 23 23 22 21 21 21 20 19 18 18 18 17 16 15 15 14 13 13
45 45 45 45 44 44 44 43 41 40 38 35 33 33 31 30 28 26 27 26 25 25 25 25 25 24 24 23 23 23 23 22 22 21 20 20 20 19 18 17 17 16 15
46 46 46 46 45 45 44 44 43 41 41 38 35 34 34 33 31 31 29 27 26 26 26 26 27 27 26 25 24 24 24 24 24 23 23 23 22 22 21 20 19 19 18
43 44 44 44 44 44 44 43 43 42 41 39 38 36 36 35 33 32 31 29 28 27 27 28 27 27 27 26 26 26 25 25 25 25 25 24 24 24 23 22 22 21 21
39 39 39 40 41 42 41 41 41 41 41 39 38 38 37 36 35 33 31 30 30 29 30 30 29 28 28 27 27 27 27 27 27 27 27 27 27 26 26 25 25 24 23
33 34 34 35 36 37 37 37 37 37 38 37 37 37 36 37 36 34 32 30 30 31 30 30 30 29 29 29 29 28 29 29 29 28 28 29 29 29 29 28 28 27 26